Bardai Zougra Airport

Jump to: basic info | weather | comments

Related pages: nearby airports | nearby navaids | notams | map

Basic information (top)

Codes: FTTZ
Location: lon 21.450001, lat 17.049999, elev 3,524 ft / 1,074 m msl
Status: small_airport

Weather (top)

Current conditions for Faya Largeau Airport 242nm (448km) SSE (rec'd 2015/01/27 15:00Z):

FTTY 271500Z 00000KT CAVOK 33/M04 Q1012

Airport forecast for Kufra Airport 383nm (710km) ENE (rec'd 2015/01/28 00:00Z):

TAF HLKF 272300Z 2700/2824 36012KT CAVOK

Latest comments (top)

No comments yet for Bardai Zougra Airport

More... (top)

See also NOTAMs and nearby airports and navaids, or visit the Bardai Zougra Airport page at the main OurAirports website..